[[{"header":{"parameterUnit":"m.s-1","parameterCategory":1,"la1":30.2991,"la2":30.254,"lo1":-89.0895,"lo2":-89.0444,"dy":0.0017,"dx":0.0017,"nx":28,"ny":28,"refTime":"2024-12-07T09:00:00:Z","depth":0,"parameterNumber":2,"parameterNumberName":"U-component_of_WINDS"},"data":[0,0,0,0,0,0,0,0,0,0,0,0,0,0,0,0,0,0,0,0,0,0,0,0,0,0,0,0,0,0,0,0,0,0,0,0,0,0,0,0,0,0,0,0,0,0,0,0,0,0,0,0,0,0,0,0,0,0,-3.0345,-3.0345,0,-3.0349,-3.0349,-3.0349,-3.0226,-3.0223,-3.0219,-3.0216,-3.0221,-3.0224,-3.0228,0,0,0,0,0,0,0,0,0,0,0,0,0,-3.023,-3.0233,-3.0345,-3.0345,-3.0345,-3.0349,-3.0349,-3.0349,-3.0227,-3.0223,-3.0219,-3.0215,-3.022,-3.0224,-3.0228,0,0,0,0,0,0,0,0,0,0,0,0,0,-3.0262,-3.0234,-3.0345,-3.0284,-3.0279,-3.0349,-3.0349,-3.0349,-3.0227,-3.0222,-3.0218,-3.0213,-3.0219,-3.0224,-3.0228,-3.0357,0,0,-3.0243,-3.0245,0,0,0,0,0,0,0,0,-3.026,-3.0266,-3.0293,-3.0289,-3.0283,-3.0282,-3.031,-3.0352,-3.0229,-3.0247,-3.0216,-3.021,-3.0246,-3.0248,-3.026,-3.0357,-3.0358,-3.0244,-3.0246,-3.0249,-3.025,0,0,0,0,0,0,0,-3.0258,-3.0265,-3.0347,-3.0294,-3.0287,-3.0257,-3.0256,-3.0318,-3.0274,-3.0245,-3.0236,-3.0238,-3.0242,-3.0255,-3.0259,-3.0358,-3.0243,-3.0248,-3.0251,-3.0253,-3.0561,-3.0566,0,0,0,0,0,0,-3.0264,-3.0264,-3.0347,-3.0347,-3.0259,-3.0263,-3.0262,-3.0287,-3.0273,-3.0266,-3.0243,-3.0233,-3.0249,-3.0253,-3.0259,-3.0408,-3.0249,-3.0253,-3.0256,-3.0555,-3.0562,-3.0567,0,0,0,0,0,0,-3.0262,-3.0273,-3.0346,-3.0303,-3.031,-3.027,-3.03,-3.029,-3.0303,-3.0271,-3.0263,-3.0264,-3.0246,-3.0252,-3.0333,-3.0406,-3.0255,-3.026,-3.0549,-3.0557,-3.0565,-3.0708,0,0,0,0,0,0,-3.0259,-3.0273,-3.0321,-3.0305,-3.0313,-3.0422,-3.0304,-3.0294,-3.0312,-3.0299,-3.0289,-3.0283,-3.0242,-3.0327,-3.0338,-3.041,-3.0263,-3.0542,-3.0553,-3.0562,-3.0696,-3.072,-3.074,0,0,0,0,0,-3.0256,-3.0362,-3.0325,-3.0335,-3.0373,-3.0426,-3.0431,-3.0381,-3.0318,-3.0367,-3.0346,-3.0283,-3.0397,-3.0336,-3.0348,-3.0422,-3.0537,-3.055,-3.0561,-3.0687,-3.0715,-3.0739,0,0,0,0,0,0,-3.0388,-3.0359,-3.0317,-3.0421,-3.0427,-3.0405,-3.0465,-3.0413,-3.0437,-3.0424,-3.0362,-3.0361,-3.0453,-3.0445,-3.0379,-3.0546,-3.0456,-3.0471,-3.0547,-3.0574,-3.0595,-3.0595,-3.0267,0,0,0,0,0,-3.043,-3.0475,-3.0447,-3.0542,-3.0547,-3.0506,-3.0527,-3.0488,-3.0492,-3.0494,-3.0479,-3.0485,-3.0522,-3.0547,-3.0579,-3.0695,-3.0691,-3.0752,-3.0773,-3.0791,-3.0805,-3.0864,-3.0891,-3.0607,-3.0606,-3.0606,0,0,-3.0515,-3.0505,-3.0538,-3.0568,-3.0568,-3.0616,-3.0509,-3.0565,-3.06,-3.0503,-3.0578,-3.0568,-3.0571,-3.067,-3.0712,-3.0667,-3.0882,-3.0806,-3.0821,-3.0825,-3.088,-3.0907,-3.0931,-3.0615,-3.0613,-3.0612,0,0,-3.0696,-3.0694,-3.0771,-3.0774,-3.0775,-3.0747,-3.0766,-3.0752,-3.0741,-3.0816,-3.0744,-3.0785,-3.085,-3.0854,-3.0865,-3.1048,-3.0991,-3.106,-3.1173,-3.1232,-3.1254,-3.1274,-3.1338,-3.1362,-3.1073,-3.1074,-3.1074,0,-3.0803,-3.0873,-3.0818,-3.0879,-3.0894,-3.0808,-3.0886,-3.0891,-3.0903,-3.0916,-3.0864,-3.0943,-3.0939,-3.1037,-3.1081,-3.1093,-3.1113,-3.106,-3.1255,-3.1274,-3.1292,-3.1353,-3.1377,-3.1082,-3.1081,-3.108,-3.1079,0,-3.1004,-3.1054,-3.1117,-3.113,-3.1152,-3.1222,-3.1177,-3.1206,-3.1166,-3.1143,-3.122,-3.1212,-3.1241,-3.1261,-3.1223,-3.1354,-3.1326,-3.1266,-3.1174,-3.1328,-3.1384,-3.1407,-3.1094,-3.1091,-3.1088,-3.1086,0,0,-3.1269,-3.1251,-3.1275,-3.1279,-3.1274,-3.1311,-3.1377,-3.1404,-3.143,-3.1441,-3.1494,-3.1551,-3.1495,-3.1507,-3.1468,-3.152,-3.1665,-3.1453,-3.1452,-3.1493,-3.1809,-3.1854,-3.1882,-3.1627,-3.1631,-3.1634,-3.1808,0,-3.1444,-3.1555,-3.1507,-3.1622,-3.1667,-3.1585,-3.1642,-3.1645,-3.1625,-3.1661,-3.1639,-3.168,-3.1603,-3.161,-3.1658,-3.1637,-3.1727,-3.1624,-3.1675,-3.1678,-3.1677,-3.1911,-3.1959,-3.2123,-3.183,-3.1834,-3.1836,0,-3.1664,-3.1684,-3.1803,-3.1789,-3.1806,-3.1858,-3.1879,-3.1914,-3.1915,-3.1897,-3.1911,-3.186,-3.1923,-3.1832,-3.1917,-3.1848,-3.1866,-3.1859,-3.1864,-3.1867,-3.1766,-3.192,-3.2175,-3.22,-3.1871,-3.1868,-3.1865,0,-3.1845,-3.1901,-3.198,-3.1986,-3.1972,-3.201,-3.2006,-3.2003,-3.2022,-3.2041,-3.2052,-3.2078,-3.2093,-3.2114,-3.2071,-3.2009,-3.2162,-3.2068,-3.2149,-3.2151,-3.2185,-3.2183,-3.2446,-3.2198,-3.2197,-3.2197,-3.2197,0,-3.2045,-3.2122,-3.206,-3.2109,-3.2192,-3.2136,-3.2219,-3.2206,-3.2204,-3.2248,-3.2179,-3.2222,-3.2163,-3.22,-3.2167,-3.2243,-3.225,-3.2237,-3.2227,-3.2243,-3.2245,-3.2254,-3.2242,-3.2203,-3.2202,-3.2201,-3.22,0,-3.2261,-3.2224,-3.2304,-3.2283,-3.228,-3.2342,-3.2325,-3.2368,-3.2344,-3.2401,-3.2411,-3.2373,-3.2413,-3.2372,-3.241,-3.2388,-3.2489,-3.2463,-3.2489,-3.2481,-3.2565,-3.2557,-3.2842,-3.2877,-3.2607,-3.261,-3.2612,0,-3.2392,-3.2449,-3.2434,-3.2459,-3.2459,-3.2499,-3.2518,-3.2465,-3.2488,-3.2494,-3.2537,-3.2571,-3.2596,-3.2664,-3.264,-3.2668,-3.2642,-3.274,-3.2646,-3.266,-3.2643,-3.264,-3.2645,-3.2759,-3.2762,-3.2765,-3.2767,0,-3.2627,-3.2606,-3.2636,-3.266,-3.2685,-3.2701,-3.2712,-3.2736,-3.2681,-3.2711,-3.2751,-3.277,-3.2808,-3.2843,-3.2864,-3.2859,-3.2805,-3.2797,-3.2817,-3.2834,-3.2846,-3.284,-3.2541,-3.2791,-3.2788,-3.2786,-3.2785,-3.2784,-3.2804,-3.285,-3.2847,-3.2883,-3.2886,-3.2898,-3.2937,-3.2918,-3.295,-3.2977,-3.2943,-3.2993,-3.2992,-3.3015,-3.3017,-3.3054,-3.3013,-3.3042,-3.305,-3.3058,-3.307,-3.2841,-3.3058,-3.3057,-3.3057,-3.3056,-3.3056,0,-3.3035,-3.3029,-3.3063,-3.308,-3.3109,-3.3054,-3.3063,-3.309,-3.3135,-3.3139,-3.3164,-3.321,-3.3243,-3.3222,-3.325,-3.3284,-3.326,-3.3293,-3.329,-3.329,-3.3106,-3.3085,-3.3313,-3.3313,-3.3313,-3.3312,-3.3312,-3.3312,-3.3159,-3.3234,-3.3212,-3.3288,-3.3281,-3.3328,-3.3338,-3.3349,-3.3351,-3.3406,-3.3433,-3.3418,-3.3412,-3.3439,-3.3467,-3.3459,-3.3473,-3.3516,-3.35,-3.3328,-3.3303,-3.3279,-3.3259,-3.3519,-3.352,-3.368,-3.3682,-3.3683]},{"header":{"parameterUnit":"m.s-1","parameterCategory":1,"la1":30.2991,"la2":30.254,"lo1":-89.0895,"lo2":-89.0444,"dy":0.0017,"dx":0.0017,"nx":28,"ny":28,"refTime":"2024-12-07T09:00:00:Z","depth":0,"parameterNumber":3,"parameterNumberName":"V-component_of_WINDS"},"data":[0,0,0,0,0,0,0,0,0,0,0,0,0,0,0,0,0,0,0,0,0,0,0,0,0,0,0,0,0,0,0,0,0,0,0,0,0,0,0,0,0,0,0,0,0,0,0,0,0,0,0,0,0,0,0,0,0,0,-0.233,-0.2331,0,-0.2392,-0.2393,-0.2394,-0.2447,-0.2447,-0.2448,-0.2448,-0.2515,-0.2516,-0.2518,0,0,0,0,0,0,0,0,0,0,0,0,0,-0.226,-0.2261,-0.233,-0.2331,-0.2332,-0.2392,-0.2393,-0.2394,-0.2446,-0.2447,-0.2448,-0.2449,-0.2515,-0.2516,-0.2518,0,0,0,0,0,0,0,0,0,0,0,0,0,-0.2303,-0.2261,-0.233,-0.2365,-0.2369,-0.2392,-0.2393,-0.2394,-0.2446,-0.2447,-0.2448,-0.2449,-0.2514,-0.2516,-0.2518,-0.2512,0,0,-0.2524,-0.2524,0,0,0,0,0,0,0,0,-0.23,-0.2305,-0.2359,-0.2363,-0.2367,-0.2412,-0.2393,-0.2434,-0.2446,-0.2417,-0.2448,-0.2449,-0.2481,-0.2485,-0.2495,-0.2515,-0.2518,-0.2524,-0.2525,-0.2526,-0.2526,0,0,0,0,0,0,0,-0.2297,-0.2303,-0.2355,-0.236,-0.2365,-0.2379,-0.2386,-0.2401,-0.2443,-0.242,-0.2424,-0.243,-0.2483,-0.2493,-0.2497,-0.2519,-0.2524,-0.2525,-0.2527,-0.2527,-0.2537,-0.2536,0,0,0,0,0,0,-0.2288,-0.23,-0.2353,-0.2357,-0.2335,-0.2379,-0.2387,-0.2397,-0.2443,-0.2451,-0.2429,-0.2432,-0.249,-0.2495,-0.25,-0.2495,-0.2526,-0.2528,-0.2529,-0.2538,-0.2537,-0.2536,0,0,0,0,0,0,-0.2287,-0.2293,-0.235,-0.2329,-0.2338,-0.2379,-0.239,-0.2398,-0.2408,-0.245,-0.2459,-0.2432,-0.249,-0.2497,-0.2508,-0.2498,-0.2528,-0.253,-0.2539,-0.2537,-0.2536,-0.2487,0,0,0,0,0,0,-0.2284,-0.2292,-0.2289,-0.2329,-0.2339,-0.2357,-0.239,-0.2398,-0.2411,-0.2415,-0.2455,-0.2462,-0.2492,-0.2505,-0.251,-0.2501,-0.2532,-0.254,-0.2538,-0.2537,-0.2489,-0.2484,-0.2479,0,0,0,0,0,-0.2282,-0.2274,-0.2289,-0.2295,-0.2337,-0.2356,-0.2362,-0.2395,-0.241,-0.2408,-0.2435,-0.2461,-0.2498,-0.2506,-0.2512,-0.2504,-0.2541,-0.2539,-0.2537,-0.2492,-0.2485,-0.2479,0,0,0,0,0,0,-0.2234,-0.228,-0.2297,-0.2301,-0.2324,-0.2365,-0.2364,-0.2387,-0.2407,-0.241,-0.2451,-0.246,-0.2466,-0.2486,-0.2494,-0.25,-0.2523,-0.2522,-0.2487,-0.2481,-0.2475,-0.247,-0.2533,0,0,0,0,0,-0.2223,-0.2234,-0.2275,-0.2275,-0.2285,-0.2322,-0.2332,-0.2355,-0.2381,-0.2391,-0.2419,-0.2444,-0.2462,-0.2472,-0.2491,-0.2492,-0.2502,-0.249,-0.2484,-0.248,-0.2479,-0.2481,-0.2476,-0.2529,-0.2529,-0.2529,0,0,-0.2202,-0.2229,-0.2234,-0.2265,-0.2286,-0.2297,-0.233,-0.2341,-0.235,-0.2394,-0.2405,-0.2426,-0.2457,-0.2463,-0.2467,-0.248,-0.2466,-0.2478,-0.2474,-0.2475,-0.2478,-0.2473,-0.2468,-0.2528,-0.2528,-0.2529,0,0,-0.217,-0.2191,-0.2193,-0.2212,-0.2242,-0.2267,-0.2267,-0.2304,-0.232,-0.2332,-0.2364,-0.2376,-0.2405,-0.2425,-0.2439,-0.2413,-0.2438,-0.2418,-0.2391,-0.2392,-0.2388,-0.2384,-0.2374,-0.2371,-0.2417,-0.2417,-0.2416,0,-0.2141,-0.2158,-0.2192,-0.22,-0.2213,-0.2251,-0.2253,-0.2271,-0.2306,-0.2314,-0.2328,-0.2364,-0.2388,-0.2398,-0.2392,-0.2402,-0.2404,-0.2414,-0.2386,-0.2382,-0.238,-0.2371,-0.2367,-0.2414,-0.2414,-0.2414,-0.2415,0,-0.212,-0.2131,-0.213,-0.216,-0.2173,-0.2179,-0.2213,-0.2223,-0.2244,-0.2267,-0.2279,-0.2308,-0.2333,-0.2337,-0.2359,-0.2351,-0.2358,-0.2378,-0.2402,-0.2371,-0.2363,-0.236,-0.241,-0.2411,-0.2412,-0.2412,0,0,-0.206,-0.2108,-0.2107,-0.2121,-0.2156,-0.2166,-0.2173,-0.2195,-0.2202,-0.2225,-0.2232,-0.2255,-0.2273,-0.2289,-0.2313,-0.2314,-0.2291,-0.2335,-0.2336,-0.2325,-0.2283,-0.2267,-0.2263,-0.2307,-0.2307,-0.2306,-0.228,0,-0.2033,-0.2046,-0.2076,-0.2081,-0.2091,-0.2128,-0.2134,-0.2156,-0.2178,-0.2191,-0.2216,-0.2231,-0.2254,-0.2264,-0.2266,-0.2293,-0.2283,-0.2295,-0.2315,-0.2315,-0.2305,-0.2259,-0.2243,-0.2217,-0.2277,-0.2277,-0.2277,0,-0.2003,-0.2022,-0.2027,-0.206,-0.2066,-0.2071,-0.2093,-0.2105,-0.2131,-0.2147,-0.2164,-0.219,-0.22,-0.2222,-0.2236,-0.2244,-0.2253,-0.2267,-0.2267,-0.227,-0.2294,-0.226,-0.2209,-0.2205,-0.2272,-0.2273,-0.2273,0,-0.1958,-0.1984,-0.199,-0.2001,-0.2041,-0.2043,-0.206,-0.2087,-0.2098,-0.2118,-0.2126,-0.2147,-0.2159,-0.2175,-0.2207,-0.222,-0.2217,-0.2242,-0.2231,-0.223,-0.2229,-0.2228,-0.2178,-0.2235,-0.2235,-0.2235,-0.2235,0,-0.1925,-0.1926,-0.197,-0.1974,-0.1977,-0.2011,-0.2014,-0.2034,-0.2057,-0.2066,-0.2099,-0.2107,-0.2148,-0.2161,-0.2186,-0.2193,-0.2199,-0.2212,-0.2219,-0.2209,-0.2207,-0.2216,-0.2218,-0.2234,-0.2235,-0.2235,-0.2235,0,-0.1875,-0.1904,-0.1913,-0.1949,-0.1958,-0.1958,-0.199,-0.1995,-0.2018,-0.2029,-0.2033,-0.207,-0.2086,-0.2119,-0.2146,-0.2162,-0.2164,-0.2176,-0.2154,-0.2159,-0.2145,-0.2146,-0.2099,-0.2094,-0.2154,-0.2153,-0.2153,0,-0.1851,-0.1853,-0.1888,-0.1896,-0.1911,-0.1923,-0.1934,-0.1968,-0.1978,-0.2008,-0.2009,-0.2028,-0.2045,-0.2069,-0.2099,-0.2119,-0.2131,-0.2113,-0.2135,-0.2124,-0.213,-0.213,-0.213,-0.2109,-0.2108,-0.2107,-0.2106,0,-0.1806,-0.1821,-0.1835,-0.1853,-0.1865,-0.1882,-0.1901,-0.1906,-0.1944,-0.1954,-0.1971,-0.1983,-0.2009,-0.2027,-0.2051,-0.2069,-0.2094,-0.2099,-0.2098,-0.2088,-0.2075,-0.2081,-0.2141,-0.21,-0.2101,-0.2101,-0.2102,-0.2102,-0.1769,-0.1772,-0.1796,-0.1811,-0.1828,-0.1845,-0.1851,-0.1874,-0.1888,-0.191,-0.193,-0.1944,-0.197,-0.2005,-0.2021,-0.2033,-0.2046,-0.2044,-0.2043,-0.2042,-0.2037,-0.2073,-0.2038,-0.2038,-0.2039,-0.2039,-0.2039,0,-0.1725,-0.1743,-0.1755,-0.178,-0.1791,-0.1812,-0.1833,-0.1842,-0.1853,-0.1875,-0.189,-0.1908,-0.1926,-0.1956,-0.1976,-0.198,-0.1992,-0.1984,-0.1984,-0.1988,-0.2026,-0.2025,-0.1974,-0.1974,-0.1974,-0.1974,-0.1974,-0.1974,-0.1704,-0.1709,-0.1726,-0.174,-0.1758,-0.1771,-0.1782,-0.1797,-0.1814,-0.1833,-0.1847,-0.1866,-0.1891,-0.1913,-0.193,-0.1938,-0.1944,-0.1932,-0.1945,-0.1979,-0.1985,-0.1991,-0.199,-0.1934,-0.1933,-0.1906,-0.1906,-0.1905]}]]